Mojave, CA

11:24 PM PDT on April 23, 2018 (GMT -0700)
Mojave

Weather History for KMHV - February, 2014

Change the Weather History Date:

Saturday, February 8, 2014

  Actual Average Record
Temperature  
Mean Temperature 56 °F -  
Max Temperature 64 °F 58 °F 73 °F (2015)
Min Temperature 48 °F 35 °F 24 °F (1965)
Degree Days  
Heating Degree Days 9    
Growing Degree Days 6 (Base 50)    
Moisture  
Dew Point 39 °F    
Average Humidity 57    
Maximum Humidity 72    
Minimum Humidity 40    
Precipitation  
Precipitation 0.00 in - - ()
Sea Level Pressure  
Sea Level Pressure 30.16 in    
Wind  
Wind Speed 20 mph (WSW)    
Max Wind Speed 36 mph    
Max Gust Speed 52 mph    
Visibility 10 miles    
Events      
Averages and records for this station are not official NWS values.
T = Trace of Precipitation, MM = Missing Value Source: NWS Daily Summary

Daily Weather History Graph

Daily Weather History Graph

Search for Another Location

Airport or City:

Astronomy

Feb. 08, 2014 Rise Set
Actual Time 6:45 AM PST 5:28 PM PST
Civil Twilight 6:19 AM PST 5:54 PM PST
Nautical Twilight 5:49 AM PST 6:24 PM PST
Astronomical Twilight 5:19 AM PST 6:54 PM PST
Moon 12:29 PM PST (2/8) 1:59 AM PST (2/8)
Length of Visible Light 11h 35m
Length of Day
10h 42m
Waxing Gibbous, 69% of the Moon is Illuminated
Feb 8
Waxing Gibbous
Feb 14
Full
Feb 22
Last Quarter
Mar 1
New
Mar 8
First Quarter

Hourly Weather History & Observations

Time (PST) Temp. Dew Point Humidity Pressure Visibility Wind Dir Wind Speed Gust Speed Precip Events Conditions
12:15 AM 48.2 °F 32.0 °F 54% 30.14 in 10.0 mi WSW 16.1 mph 24.2 mph N/A   Overcast
12:35 AM 48.2 °F 32.0 °F 54% 30.13 in 10.0 mi WSW 18.4 mph 23.0 mph N/A   Overcast
12:55 AM 48.2 °F 32.0 °F 54% 30.13 in 10.0 mi WSW 17.3 mph 29.9 mph N/A   Mostly Cloudy
1:15 AM 48.2 °F 32.0 °F 54% 30.13 in 10.0 mi WSW 21.9 mph 27.6 mph N/A   Partly Cloudy
1:35 AM 48.2 °F 32.0 °F 54% 30.12 in 10.0 mi WSW 21.9 mph 29.9 mph N/A   Clear
1:55 AM 48.2 °F 32.0 °F 54% 30.12 in 10.0 mi WSW 21.9 mph 31.1 mph N/A   Clear
2:15 AM 48.2 °F 32.0 °F 54% 30.11 in 10.0 mi WSW 24.2 mph 32.2 mph N/A   Clear
2:35 AM 48.2 °F 32.0 °F 54% 30.11 in 10.0 mi WSW 23.0 mph 29.9 mph N/A   Clear
2:55 AM 48.2 °F 32.0 °F 54% 30.11 in 10.0 mi WSW 24.2 mph 29.9 mph N/A   Clear
3:15 AM 50.0 °F 32.0 °F 50% 30.10 in 10.0 mi WSW 21.9 mph 28.8 mph N/A   Clear
3:35 AM 50.0 °F 32.0 °F 50% 30.12 in 10.0 mi WSW 18.4 mph - N/A   Clear
3:55 AM 48.2 °F 32.0 °F 54% 30.11 in 10.0 mi WSW 20.7 mph 26.5 mph N/A   Clear
4:15 AM 48.2 °F 32.0 °F 54% 30.11 in 10.0 mi WSW 24.2 mph 27.6 mph N/A   Clear
4:35 AM 50.0 °F 32.0 °F 50% 30.12 in 10.0 mi West 21.9 mph 32.2 mph N/A   Clear
4:55 AM 48.2 °F 33.8 °F 58% 30.12 in 10.0 mi West 21.9 mph 29.9 mph N/A   Clear
5:15 AM 48.2 °F 35.6 °F 62% 30.13 in 10.0 mi West 25.3 mph 29.9 mph N/A   Clear
5:35 AM 48.2 °F 35.6 °F 62% 30.14 in 10.0 mi West 23.0 mph 29.9 mph N/A   Clear
5:55 AM 48.2 °F 35.6 °F 62% 30.15 in 10.0 mi WSW 20.7 mph 27.6 mph N/A   Clear
6:15 AM 48.2 °F 35.6 °F 62% 30.15 in 10.0 mi WSW 20.7 mph 28.8 mph N/A   Clear
6:35 AM 48.2 °F 35.6 °F 62% 30.16 in 10.0 mi WSW 23.0 mph 28.8 mph N/A   Clear
6:55 AM 48.2 °F 37.4 °F 66% 30.16 in 10.0 mi WSW 20.7 mph 29.9 mph N/A   Clear
7:15 AM 48.2 °F 37.4 °F 66% 30.16 in 10.0 mi WSW 21.9 mph 27.6 mph N/A   Clear
7:35 AM 48.2 °F 37.4 °F 66% 30.16 in 10.0 mi WSW 23.0 mph - N/A   Clear
7:55 AM 50.0 °F 39.2 °F 66% 30.17 in 10.0 mi WSW 26.5 mph 34.5 mph N/A   Clear
8:15 AM 50.0 °F 41.0 °F 71% 30.18 in 10.0 mi WSW 28.8 mph 32.2 mph N/A   Clear
8:35 AM 53.6 °F 41.0 °F 62% 30.18 in 10.0 mi WSW 32.2 mph 35.7 mph N/A   Clear
8:55 AM 53.6 °F 41.0 °F 62% 30.18 in 10.0 mi WSW 26.5 mph 36.8 mph N/A   Clear
9:15 AM 55.4 °F 42.8 °F 63% 30.19 in 10.0 mi WSW 29.9 mph - N/A   Clear
9:35 AM 55.4 °F 42.8 °F 63% 30.20 in 10.0 mi WSW 31.1 mph 35.7 mph N/A   Clear
9:55 AM 55.4 °F 42.8 °F 63% 30.21 in 10.0 mi WSW 26.5 mph 33.4 mph N/A   Clear
10:15 AM 57.2 °F 44.6 °F 63% 30.21 in 10.0 mi WSW 25.3 mph - N/A   Partly Cloudy
10:35 AM 57.2 °F 44.6 °F 63% 30.19 in 10.0 mi West 24.2 mph 31.1 mph N/A   Scattered Clouds
10:55 AM 57.2 °F 44.6 °F 63% 30.21 in 10.0 mi West 23.0 mph 32.2 mph N/A   Partly Cloudy
11:15 AM 57.2 °F 44.6 °F 63% 30.20 in 10.0 mi West 23.0 mph - N/A   Partly Cloudy
11:35 AM 57.2 °F 44.6 °F 63% 30.19 in 10.0 mi West 19.6 mph 25.3 mph N/A   Scattered Clouds
11:55 AM 59.0 °F 44.6 °F 59% 30.18 in 10.0 mi West 19.6 mph - N/A   Partly Cloudy
12:15 PM 62.6 °F 44.6 °F 52% 30.18 in 10.0 mi West 15.0 mph 24.2 mph N/A   Mostly Cloudy
12:35 PM 62.6 °F 42.8 °F 48% 30.17 in 10.0 mi WNW 23.0 mph - N/A   Mostly Cloudy
12:55 PM 62.6 °F 42.8 °F 48% 30.16 in 10.0 mi West 19.6 mph 24.2 mph N/A   Partly Cloudy
1:15 PM 62.6 °F 41.0 °F 45% 30.15 in 10.0 mi West 19.6 mph 25.3 mph N/A   Scattered Clouds
1:35 PM 62.6 °F 41.0 °F 45% 30.16 in 10.0 mi West 17.3 mph 23.0 mph N/A   Partly Cloudy
1:55 PM 64.4 °F 39.2 °F 40% 30.16 in 10.0 mi WSW 17.3 mph 20.7 mph N/A   Clear
2:15 PM 64.4 °F 39.2 °F 40% 30.14 in 10.0 mi West 15.0 mph - N/A   Clear
2:35 PM 62.6 °F 41.0 °F 45% 30.14 in 10.0 mi WNW 12.7 mph - N/A   Clear
2:55 PM 62.6 °F 41.0 °F 45% 30.14 in 10.0 mi West 16.1 mph - N/A   Clear
3:15 PM 62.6 °F 41.0 °F 45% 30.14 in 10.0 mi West 15.0 mph 18.4 mph N/A   Clear
3:35 PM 62.6 °F 41.0 °F 45% 30.15 in 10.0 mi West 12.7 mph 17.3 mph N/A   Clear
3:55 PM 59.0 °F 41.0 °F 51% 30.16 in 10.0 mi West 20.7 mph 27.6 mph N/A   Clear
4:15 PM 59.0 °F 41.0 °F 51% 30.17 in 10.0 mi West 10.4 mph - N/A   Clear
4:35 PM 59.0 °F 37.4 °F 45% 30.17 in 10.0 mi West 16.1 mph 24.2 mph N/A   Clear
4:55 PM 59.0 °F 35.6 °F 42% 30.18 in 10.0 mi West 10.4 mph 19.6 mph N/A   Clear
5:15 PM 57.2 °F 37.4 °F 48% 30.19 in 10.0 mi WSW 10.4 mph - N/A   Unknown
5:35 PM 55.4 °F 37.4 °F 51% 30.19 in 10.0 mi West 8.1 mph 21.9 mph N/A   Partly Cloudy
5:55 PM 55.4 °F 39.2 °F 54% 30.20 in 10.0 mi WSW 8.1 mph - N/A   Clear
6:15 PM 55.4 °F 41.0 °F 58% 30.20 in 10.0 mi SSW 8.1 mph - N/A   Partly Cloudy
6:35 PM 53.6 °F 42.8 °F 67% 30.19 in 10.0 mi WSW 5.8 mph - N/A   Partly Cloudy
6:55 PM 53.6 °F 41.0 °F 62% 30.20 in 10.0 mi SE 6.9 mph - N/A   Partly Cloudy
7:15 PM 55.4 °F 41.0 °F 58% 30.20 in 10.0 mi South 6.9 mph - N/A   Scattered Clouds
7:35 PM 55.4 °F 41.0 °F 58% 30.18 in 10.0 mi NNW 12.7 mph 17.3 mph N/A   Partly Cloudy
7:55 PM 55.4 °F 41.0 °F 58% 30.18 in 10.0 mi WNW 10.4 mph 19.6 mph N/A   Clear
8:15 PM 53.6 °F 42.8 °F 67% 30.20 in 10.0 mi WSW 10.4 mph 19.6 mph N/A   Scattered Clouds
8:35 PM 53.6 °F 42.8 °F 67% 30.19 in 10.0 mi WSW 6.9 mph - N/A   Scattered Clouds
8:55 PM 53.6 °F 44.6 °F 72% 30.18 in 10.0 mi NW 21.9 mph 40.3 mph N/A   Clear
9:15 PM 55.4 °F 42.8 °F 63% 30.17 in 10.0 mi WSW 24.2 mph 46.0 mph N/A   Clear
9:35 PM 53.6 °F 44.6 °F 72% 30.15 in 10.0 mi WNW 35.7 mph 51.8 mph N/A   Clear
9:55 PM 55.4 °F 44.6 °F 67% 30.13 in 10.0 mi WNW 34.5 mph 49.5 mph N/A   Clear
10:15 PM 55.4 °F 44.6 °F 67% 30.14 in 8.0 mi West 35.7 mph 50.6 mph N/A   Clear
10:35 PM 55.4 °F 42.8 °F 63% 30.16 in 10.0 mi West 27.6 mph 40.3 mph N/A   Clear
10:55 PM 55.4 °F 42.8 °F 63% 30.15 in 10.0 mi West 28.8 mph 36.8 mph N/A   Clear
11:15 PM 55.4 °F 42.8 °F 63% 30.16 in 10.0 mi West 23.0 mph 36.8 mph N/A   Clear
11:35 PM 53.6 °F 42.8 °F 67% 30.16 in 10.0 mi West 24.2 mph 33.4 mph N/A   Clear
11:55 PM 53.6 °F 44.6 °F 72% 30.16 in 10.0 mi West 23.0 mph 27.6 mph N/A   Clear